744  
SXUS52 KCHS 130525  
OSOCHS  
 
MARINE OBSERVATIONS  
NATIONAL WEATHER SERVICE CHARLESTON SC  
100 AM EDT SAT AUG 13 2022  
   
..DOWNTOWN CHARLESTON AND HARBOR
 
 
 
CITY SKY/WX TMP DP RH WIND PRES REMARKS  
WATERFRONT PRK N/A 76 72 87 N7 29.88R  
   
..LAKE MOULTRIE
 
 
 
CITY SKY/WX TMP DP RH WIND PRES REMARKS  
PINOPOLIS N/A 73 72 94 E8 29.96S  
   
..LAKE AND SUPPLEMENTAL COASTAL OBSERVATIONS
 
 
 
STATION/POSITION TIME TEMP WIND PRES WAVE SWELL  
AIR SEA DIR/SP/G HT/PER HT/PER/DIR  
(UTC) (F) (DEG/KT/KT) (MB) (FT/S) (FT/S/D)  
CHRLSTN HARBOR 0448 76 85 340/ 4/ 6 1015.5F  
FORT PULASKI 0448 76 85 280/ 5/ 6 1016.3F  
SAPELO ISLAND 0500 78 220/ 8 1016.0  
WINYAH BAY 0445 73 10/ 5 1018.0R  
LAKE MURRAY 0520 72 CALM / 2 N/A  
ACE BASIN NERRS NOT AVBL  
 
   
..C-MAN AND BUOY OBSERVATIONS
 
 
 
STATION/POSITION TIME TEMP WIND PRES WAVE SWELL  
AIR SEA DIR/SP/G HT/PER HT/PER/DIR  
(UTC) (F) (DEG/KT/KT) (MB) (FT/S) (FT/S/D)  
BUOY 41004 0510 81 84 220/ 10/ 12 1016.2  
BUOY 41008 0450 76 83 210/ 12/ 14 1016.0F 2/ 9 2/140/ 9  
FOLLY BEACH CMAN 0500 75 20/ 10/ 11 1016.8F  
PRITCHARDS ISLAN NOT AVBL  
CHAS PILOT BUOY 0408 79 80 200/ 6/ 10 1016.8R  
CHAS PILOT WAVE 0417 80 N/A 2/ 9  
CAPERS NS BUOY NOT AVBL  
CAPERS NS WAVE NOT AVBL  
FRIPP NS BUOY NOT AVBL  
5E ST. MARYS GA 0430 81 N/A 2/ 4  
 
 
STATION/POSITION TIME TEMP WIND PRES WAVE SWELL  
AIR SEA DIR/SP/G HT/PER HT/PER/DIR  
(UTC) (F) (DEG/KT/KT) (MB) (FT/S) (FT/S/D)  
FRYING PAN BUOY 0510 77 80 40/ 8/ 8 1017.2  
BUOY 41025 0500 84 350/ 12/ 14 1016.5  
CAPE LOOKOUT NC 0500 72 350/ 8/ 9 1017.6S  
BUOY 41002 0510 81 85 270/ 2/ 4 1015.5  
BUOY 41010 0510 84 86 170/ 8/ 10 1017.5  
ST AUGUSTINE FL 0500 76 79 160/ 7/ 8 1018.1F  
 

 
 
 
CLICK HERE TO GO TO PREVIOUS BULLETINS.

The Nexlab SC Page
The Nexlab GA Page Main Text Page